This is the latest recevied weather packets stored in our database for station/object LU5DTF-1. If no packets are shown the sender has not sent any weather packets the latest 10 day(s).
| Time | Temp. | Humidity | Pressure | Rain* | Wind** | Luminosity | Snow |
|---|---|---|---|---|---|---|---|
| 1777828204 | 13.89° C | 54% | 1016.7 hPa | 0 mm | - | - | - |
| 1777827903 | 13.33° C | 52% | 1016.6 hPa | 0 mm | - | - | - |
| 1777827604 | 13.33° C | 52% | 1016.8 hPa | 0 mm | - | - | - |
| 1777827304 | 13.33° C | 51% | 1016.9 hPa | 0 mm | - | - | - |
| 1777827003 | 13.33° C | 50% | 1017 hPa | 0 mm | - | - | - |
| 1777826704 | 13.33° C | 52% | 1017.2 hPa | 0 mm | - | - | - |
| 1777826403 | 13.33° C | 53% | 1017.3 hPa | 0 mm | - | - | - |
| 1777826103 | 13.33° C | 53% | 1017.4 hPa | 0 mm | - | - | - |
| 1777825803 | 13.33° C | 52% | 1017.5 hPa | 0 mm | - | - | - |
| 1777825504 | 13.33° C | 52% | 1017.6 hPa | 0 mm | - | - | - |
| 1777825204 | 13.33° C | 52% | 1017.9 hPa | 0 mm | - | - | - |
| 1777824903 | 12.78° C | 50% | 1018.1 hPa | 0 mm | - | - | - |
| 1777824603 | 12.78° C | 50% | 1018.3 hPa | 0 mm | - | - | - |
| 1777824303 | 13.33° C | 51% | 1018.4 hPa | 0 mm | - | - | - |
| 1777824003 | 12.78° C | 52% | 1018.5 hPa | 0 mm | - | - | - |
| 1777823703 | 12.78° C | 51% | 1018.7 hPa | 0 mm | - | - | - |
| 1777823403 | 12.78° C | 48% | 1018.8 hPa | 0 mm | - | - | - |
| 1777823103 | 12.78° C | 51% | 1019.1 hPa | 0 mm | - | - | - |
| 1777822803 | 12.78° C | 50% | 1019.1 hPa | 0 mm | - | - | - |
| 1777822503 | 12.78° C | 50% | 1019.3 hPa | 0 mm | - | - | - |
| 1777822203 | 12.78° C | 48% | 1019.5 hPa | 0 mm | - | - | - |
| 1777821903 | 12.78° C | 53% | 1019.6 hPa | 0 mm | - | - | - |
| 1777821603 | 12.22° C | 49% | 1020.1 hPa | 0 mm | - | - | - |
| 1777821303 | 12.22° C | 49% | 1020.1 hPa | 0 mm | - | - | - |
| 1777821004 | 12.22° C | 50% | 1020.1 hPa | 0 mm | - | - | - |
* Rain latest hour (hover to see other rain measurements)
** Current wind speed in m/s (hover to see current wind gust speed)